Wetbulb
58.13 58.09 57.88 57.99 58.13 58.12 57.94 57.79 57.73 57.79 57.88 58.19 58.06 58.39 58.36 58.43 58.33 56.30 50.64 56.12 58.89 65.96 69.38 57.62 60.74 57.77 56.42 58.46 63.13 69.48 58.75 55.76 55.65 57.22 59.41 65.29 62.03 65.93 65.70 63.32 64.96 66.13 65.78 67.00 69.50
58.28 57.90 58.08 57.98 58.34 58.22 58.01 57.88 57.82 57.80 57.68 57.34 57.54 57.77 57.85 58.37 54.20 52.01 59.48 66.36 68.08 70.48 55.36 52.22 58.11 55.90 54.38 57.73 62.25 62.49 56.47 58.09 60.06 61.05 61.46 64.55 65.16 63.38 62.49 61.89 62.84 64.31 66.48 68.34 68.82
58.13 58.06 58.22 58.16 58.45 58.36 58.17 57.98 58.02 57.66 57.56 57.52 57.43 57.26 57.43 57.09 51.78 54.67 67.76 67.80 70.09 69.05 54.74 53.24 55.44 58.17 55.21 56.84 61.75 63.55 58.79 64.06 61.28 62.93 64.81 62.98 63.56 65.61 62.49 60.00 63.53 62.78 64.57 67.19 67.77
57.69 57.88 58.05 58.35 58.29 58.24 58.03 58.11 57.85 57.59 57.44 57.45 57.75 58.03 58.16 54.16 46.92 59.06 69.54 69.65 71.67 58.11 51.78 51.35 53.25 52.65 53.13 53.64 60.92 62.11 65.08 65.75 64.91 65.42 63.94 63.58 64.82 63.43 63.71 63.41 66.34 66.00 67.08 67.28 66.46
57.87 57.70 58.05 57.99 57.82 57.94 58.00 57.75 57.52 57.28 57.00 57.27 58.05 58.17 53.34 48.93 50.85 59.47 71.19 70.98 63.07 52.29 49.33 49.37 52.18 53.36 51.45 56.23 62.74 62.49 63.87 65.38 65.63 64.76 64.04 63.81 62.68 63.63 63.78 66.70 67.47 66.49 66.94 66.02 65.92
58.16 57.62 57.61 57.57 57.74 57.91 57.84 57.54 57.19 57.08 57.21 57.20 58.17 58.21 49.99 43.77 58.79 62.98 60.75 57.87 55.14 50.02 47.72 50.18 53.64 56.16 53.85 53.98 60.31 64.30 63.43 63.38 64.12 62.71 62.42 61.00 61.42 63.29 64.88 66.80 65.10 65.29 63.48 64.85 66.27
57.99 58.03 57.91 57.67 57.66 57.48 56.92 56.96 56.48 56.92 57.00 57.17 58.04 56.64 50.18 49.70 60.49 63.23 59.93 57.55 56.15 51.46 47.49 51.25 53.58 53.28 54.00 56.16 65.19 64.44 60.70 62.02 62.53 62.59 60.47 62.44 58.89 59.83 65.29 65.36 64.40 62.92 62.84 62.89 66.33
57.90 57.71 57.59 57.57 57.41 57.06 56.61 55.74 55.80 57.06 57.61 57.50 58.26 53.08 46.20 58.21 58.22 56.93 59.06 57.61 57.39 48.75 48.83 51.88 55.33 53.61 53.03 63.05 62.72 61.12 60.07 54.77 60.57 62.19 62.38 61.53 54.59 61.91 64.71 63.68 62.69 62.19 62.75 63.80 66.79
57.74 57.65 57.40 57.29 57.10 56.57 55.96 55.48 56.16 57.93 59.18 58.06 51.70 49.40 49.57 62.61 54.87 55.32 57.21 54.03 53.48 51.50 49.04 53.25 52.24 51.53 51.63 53.06 51.91 55.02 50.52 55.08 56.75 62.01 60.77 59.71 56.24 60.42 64.05 64.49 61.09 61.23 61.57 64.37 66.17
57.28 57.28 57.12 56.99 56.73 55.78 54.90 55.57 55.59 56.59 57.87 58.07 56.68 48.44 53.00 54.84 52.94 54.02 55.18 55.52 50.02 48.81 50.24 49.72 48.68 46.26 44.98 43.27 39.23 50.42 52.12 54.64 54.24 58.61 59.62 57.83 57.80 59.54 60.34 63.38 62.63 61.09 61.69 63.70 64.19
57.28 56.71 56.33 56.21 55.88 54.74 51.25 50.13 50.07 49.23 51.60 51.36 51.36 52.63 55.31 55.89 56.46 54.18 56.53 55.94 50.17 48.38 43.87 47.83 44.04 41.07 45.39 46.31 51.92 56.46 54.96 54.20 56.58 59.54 56.84 56.48 57.27 58.57 59.71 61.11 61.98 62.30 60.08 62.83 63.38
56.81 56.11 54.77 54.44 54.53 53.57 50.92 47.25 51.12 53.65 47.04 54.72 56.60 55.91 57.95 55.39 52.58 54.02 55.55 51.54 49.27 45.01 46.70 45.31 42.37 47.26 49.03 50.18 53.41 56.31 54.81 54.30 57.11 58.74 57.59 56.30 55.60 58.45 59.33 60.54 61.96 62.46 63.03 61.77 61.78
56.45 55.53 54.59 54.00 53.92 50.78 49.03 52.18 56.08 54.27 45.53 51.42 54.74 54.84 53.38 51.62 51.62 51.32 53.23 50.92 47.46 44.73 45.74 43.12 46.55 51.13 50.30 48.06 53.47 54.50 53.47 53.65 54.33 57.10 57.16 55.48 52.92 55.18 59.00 61.05 61.69 62.98 64.14 62.96 63.10
56.27 55.87 54.18 53.32 50.10 51.42 50.34 54.33 54.75 54.52 41.60 48.00 47.17 52.00 52.06 51.71 49.16 55.34 52.38 50.07 47.71 44.69 45.12 44.36 49.62 48.87 49.15 47.81 54.18 48.51 58.76 57.24 55.93 53.55 48.92 55.17 46.23 52.74 56.00 57.79 59.86 61.32 62.37 63.38 63.22
56.15 55.46 53.42 53.03 47.47 48.43 51.73 51.15 53.87 51.26 34.53 52.24 48.80 55.83 51.75 48.05 49.14 49.83 52.97 49.66 45.74 45.80 42.90 42.91 45.30 46.17 46.13 47.80 56.89 53.91 58.82 57.14 56.13 52.05 51.69 51.28 48.35 50.26 55.93 54.81 57.37 60.33 62.38 63.55 64.26
55.52 54.79 53.01 50.53 49.28 50.93 53.70 53.86 51.40 42.18 37.48 48.67 50.68 49.52 47.48 48.71 50.20 52.18 50.98 51.55 50.98 46.99 45.73 45.36 48.02 46.53 48.75 55.92 57.93 59.10 55.73 54.57 54.45 51.36 45.01 50.24 49.52 48.85 51.76 54.72 57.56 60.31 62.13 63.33 63.83
54.23 53.01 51.47 53.35 51.54 55.16 53.26 50.87 41.60 37.84 49.59 45.91 45.12 46.71 46.22 48.23 49.27 48.81 47.99 44.61 42.73 38.94 38.17 44.09 45.24 52.21 60.18 55.41 57.69 55.77 50.54 44.80 44.13 43.96 43.74 51.99 50.11 50.86 56.39 57.92 58.91 59.87 61.40 62.84 63.79
52.42 51.09 50.13 52.79 51.79 53.42 51.39 46.19 37.15 46.84 42.62 48.85 48.58 48.99 46.48 49.75 48.95 48.30 45.29 42.96 46.52 43.64 40.24 38.73 38.12 47.62 55.90 54.92 51.33 51.96 47.81 42.96 37.96 41.88 45.04 51.44 46.89 49.65 57.83 57.97 60.24 61.78 62.61 63.38 64.29
51.01 48.19 48.89 52.49 53.08 52.14 48.01 39.28 41.22 41.61 45.55 46.24 47.43 43.94 46.18 48.09 48.80 47.30 43.83 43.55 46.82 45.80 40.99 38.03 41.38 49.81 51.39 54.42 54.99 49.98 46.96 50.83 44.21 45.74 44.54 47.87 51.33 55.77 56.77 58.17 58.61 59.96 61.52 61.97 64.46
49.54 50.34 51.30 56.38 55.80 51.00 45.32 41.02 43.99 45.55 46.60 47.02 41.75 45.12 41.84 45.92 45.55 46.48 45.55 49.55 48.65 50.04 45.92 42.85 39.70 45.48 50.14 52.10 54.93 49.79 51.09 43.85 44.56 38.73 38.90 45.74 46.41 47.69 52.82 55.86 56.91 58.43 59.65 60.84 63.45
51.28 48.13 53.64 57.15 54.72 47.92 41.15 42.50 47.82 47.18 48.82 45.26 43.44 42.93 43.65 45.28 47.40 47.29 47.34 51.15 51.65 50.08 48.64 43.56 41.44 43.67 46.28 43.80 44.53 43.97 42.13 41.36 43.73 43.40 40.88 41.61 45.39 53.98 53.95 57.32 57.21 58.26 60.34 60.16 62.16
49.51 44.70 55.31 53.64 45.86 43.51 41.53 46.69 48.70 45.73 47.47 46.47 46.81 45.88 44.93 47.39 45.36 45.45 46.71 49.71 53.58 49.85 44.93 45.82 41.52 38.00 42.28 47.67 50.43 44.79 42.08 39.61 36.49 35.64 41.88 43.53 44.98 55.90 55.74 59.25 59.82 59.81 60.18 61.37 63.29
45.18 47.92 54.64 52.78 41.80 41.23 45.65 48.64 47.25 45.24 44.32 44.84 45.90 46.05 46.15 43.25 42.09 46.81 48.55 54.34 53.35 48.83 44.08 45.62 41.04 36.37 39.56 44.62 47.90 46.52 46.55 43.91 39.70 36.35 35.28 37.67 41.21 56.77 57.07 58.59 60.40 60.46 62.10 61.98 63.34
47.17 45.23 49.19 47.78 46.23 45.66 43.59 45.45 43.60 48.95 46.45 46.33 45.71 46.63 45.74 45.33 45.32 45.19 48.18 52.13 53.38 51.38 59.35 50.40 38.76 40.61 35.64 40.69 45.16 44.05 47.03 46.90 42.52 40.31 40.41 39.09 42.71 52.98 55.79 57.27 58.66 59.97 62.35 63.12 62.55
47.97 46.23 47.37 45.81 48.35 47.98 43.60 45.27 46.18 44.51 46.90 45.72 46.64 47.58 43.94 41.07 43.67 45.15 47.85 48.46 52.05 55.68 50.35 44.58 38.41 41.21 42.43 47.82 48.90 48.30 48.75 49.32 46.37 45.36 44.27 48.21 49.19 52.27 55.87 57.75 59.48 61.42 63.23 62.91 62.92
44.55 47.94 50.90 49.16 48.25 44.58 43.79 41.17 43.95 44.04 43.63 42.43 42.22 46.55 47.55 43.05 42.66 41.70 43.07 43.11 44.36 49.02 46.15 44.30 38.69 41.41 41.46 47.41 47.90 45.94 49.18 50.56 50.01 50.46 49.56 51.84 50.73 55.29 57.26 58.49 59.43 61.73 62.61 63.43 63.23
51.19 53.28 51.35 48.19 47.47 44.48 42.85 44.40 45.32 46.89 47.53 46.73 45.55 43.64 45.54 46.23 47.80 46.65 46.78 44.49 43.56 43.65 43.54 42.08 40.35 39.26 36.02 44.55 44.33 41.27 45.16 49.15 49.94 53.22 51.98 50.12 53.41 54.16 52.29 55.08 56.09 59.29 60.33 62.16 63.25
MSLP
1017.83 1017.60 1017.36 1017.21 1017.01 1016.80 1016.61 1016.46 1016.32 1016.15 1015.94 1015.72 1015.53 1015.33 1015.10 1014.80 1014.23 1013.78 1012.91 1010.46 1010.39 1010.24 1010.22 1010.24 1010.25 1010.51 1010.80 1010.77 1010.39 1010.46 1011.86 1012.10 1013.16 1012.39 1011.72 1010.85 1010.59 1010.42 1010.27 1010.41 1011.33 1011.37 1012.17 1013.07 1014.09
1017.75 1017.55 1017.39 1017.19 1016.98 1016.75 1016.55 1016.40 1016.23 1016.02 1015.86 1015.70 1015.50 1015.28 1015.06 1014.79 1014.27 1012.74 1009.53 1009.39 1009.69 1009.72 1010.35 1010.27 1010.05 1010.39 1010.70 1010.27 1010.10 1010.47 1011.62 1012.04 1012.57 1012.13 1011.91 1011.22 1010.77 1010.51 1010.53 1011.15 1011.61 1012.04 1012.77 1013.33 1014.06
1017.85 1017.60 1017.36 1017.10 1016.89 1016.68 1016.50 1016.33 1016.14 1015.96 1015.79 1015.62 1015.44 1015.17 1014.99 1014.81 1013.82 1009.89 1008.03 1008.67 1009.35 1009.53 1009.71 1009.91 1010.04 1010.42 1010.43 1010.02 1009.92 1010.19 1010.80 1010.88 1011.61 1011.86 1011.80 1011.74 1011.65 1011.14 1011.03 1011.68 1011.37 1011.88 1012.75 1013.53 1014.13
1017.91 1017.63 1017.35 1017.09 1016.82 1016.62 1016.41 1016.22 1016.03 1015.86 1015.69 1015.47 1015.26 1014.99 1014.74 1014.65 1012.13 1008.12 1007.72 1008.10 1009.08 1009.49 1009.78 1009.83 1010.08 1010.47 1010.16 1009.91 1009.45 1009.84 1010.27 1010.60 1010.84 1011.34 1011.83 1012.09 1012.30 1012.23 1011.97 1011.10 1011.25 1012.10 1012.48 1013.26 1014.09
1017.88 1017.63 1017.30 1017.01 1016.74 1016.48 1016.24 1016.04 1015.87 1015.71 1015.59 1015.33 1015.07 1014.83 1014.55 1013.69 1010.65 1007.79 1007.82 1008.15 1009.12 1009.52 1009.73 1009.91 1009.91 1009.89 1009.84 1009.30 1009.42 1009.81 1010.57 1011.09 1011.17 1011.71 1012.27 1012.49 1013.08 1012.96 1012.29 1011.47 1011.41 1012.14 1012.71 1013.12 1013.69
1017.89 1017.62 1017.25 1016.91 1016.62 1016.27 1016.01 1015.89 1015.70 1015.50 1015.33 1015.15 1014.91 1014.80 1014.47 1012.13 1008.10 1007.87 1008.22 1008.69 1008.95 1009.32 1009.43 1009.50 1009.15 1009.50 1009.55 1009.06 1009.41 1009.96 1010.88 1011.72 1011.91 1012.16 1012.49 1012.86 1013.65 1013.30 1011.38 1010.82 1011.25 1011.91 1012.45 1012.98 1013.60
1017.77 1017.43 1017.11 1016.85 1016.51 1016.15 1015.80 1015.62 1015.41 1015.25 1015.10 1014.97 1014.82 1014.55 1013.78 1010.18 1007.97 1008.21 1008.49 1008.70 1008.61 1008.92 1009.12 1008.78 1009.19 1009.70 1009.62 1009.39 1009.68 1010.30 1011.20 1012.01 1012.78 1013.10 1013.33 1013.43 1014.63 1013.53 1011.60 1010.82 1011.40 1012.03 1012.11 1012.61 1013.10
1017.67 1017.36 1017.04 1016.64 1016.28 1015.88 1015.50 1015.25 1015.03 1014.86 1014.72 1014.73 1014.72 1014.38 1012.21 1008.27 1008.00 1008.28 1008.28 1008.45 1008.52 1008.63 1008.65 1008.46 1009.13 1009.60 1009.72 1009.43 1010.27 1010.93 1011.57 1012.64 1013.92 1013.79 1014.00 1013.80 1014.14 1013.21 1012.27 1011.68 1011.84 1011.89 1011.90 1012.45 1013.15
1017.61 1017.23 1016.82 1016.42 1016.03 1015.61 1015.05 1014.74 1014.51 1014.36 1014.28 1014.44 1014.59 1014.01 1010.83 1007.84 1007.56 1006.89 1007.48 1007.86 1008.24 1008.52 1008.56 1008.44 1008.92 1009.18 1009.17 1009.91 1011.28 1012.11 1012.39 1013.31 1014.42 1014.65 1014.35 1014.19 1014.04 1014.36 1012.74 1011.91 1011.92 1011.84 1011.92 1012.49 1013.33
1017.41 1017.00 1016.59 1016.20 1015.85 1015.47 1014.79 1013.93 1013.88 1014.02 1014.10 1014.08 1013.67 1013.38 1009.78 1007.52 1006.66 1006.50 1006.80 1007.31 1007.88 1008.37 1008.74 1008.83 1009.13 1009.20 1009.45 1010.02 1010.99 1011.98 1012.99 1013.71 1014.54 1014.78 1014.96 1014.81 1014.24 1014.41 1014.04 1013.09 1012.72 1012.08 1012.22 1012.49 1013.16
1017.24 1016.78 1016.39 1015.98 1015.66 1015.46 1014.75 1013.87 1013.99 1013.80 1013.27 1011.91 1010.93 1010.10 1008.23 1006.63 1006.01 1006.17 1006.27 1007.07 1007.65 1008.33 1008.75 1008.58 1009.45 1009.55 1009.24 1009.66 1010.17 1011.02 1012.35 1013.46 1014.22 1014.84 1015.10 1015.17 1014.83 1014.67 1014.74 1014.18 1013.65 1013.10 1012.54 1012.57 1013.00
1017.17 1016.68 1016.26 1015.81 1015.48 1015.37 1015.43 1014.20 1011.85 1011.36 1011.04 1009.65 1008.99 1008.66 1007.38 1006.85 1006.27 1006.09 1006.16 1007.09 1007.68 1008.40 1008.62 1009.12 1009.07 1008.80 1008.96 1009.24 1009.91 1010.54 1011.74 1013.20 1014.35 1015.09 1015.49 1015.58 1015.20 1014.69 1014.79 1014.81 1014.27 1013.51 1013.12 1012.54 1013.22
1017.03 1016.52 1015.97 1015.44 1015.01 1014.95 1014.34 1012.39 1010.00 1010.87 1010.98 1008.22 1007.37 1007.10 1006.66 1006.12 1006.24 1006.12 1006.25 1006.69 1007.29 1008.15 1008.51 1008.89 1007.87 1008.05 1008.59 1008.83 1009.71 1010.21 1010.72 1012.79 1013.83 1015.03 1015.57 1015.83 1015.75 1015.10 1014.43 1014.44 1014.04 1013.56 1013.28 1012.70 1012.84
1016.80 1016.30 1015.77 1015.06 1014.84 1014.13 1012.62 1009.90 1010.30 1010.62 1010.71 1008.29 1006.74 1005.77 1005.78 1005.82 1005.98 1005.50 1005.92 1006.63 1007.20 1007.78 1008.32 1008.29 1007.37 1007.77 1007.99 1008.27 1009.16 1010.34 1010.62 1011.71 1013.83 1014.62 1015.24 1015.64 1015.56 1015.01 1014.05 1014.08 1013.99 1013.76 1013.51 1013.36 1013.56
1016.51 1016.05 1015.62 1015.57 1015.34 1013.87 1010.58 1010.10 1009.88 1010.38 1009.95 1007.12 1005.95 1004.95 1005.48 1006.02 1005.97 1005.83 1005.68 1006.40 1007.13 1007.60 1008.06 1007.33 1006.76 1006.88 1007.16 1007.00 1008.63 1010.56 1011.01 1011.48 1013.28 1014.89 1015.25 1015.73 1015.55 1014.30 1014.13 1013.61 1013.42 1013.27 1013.38 1013.37 1013.53
1016.02 1015.75 1015.34 1015.22 1015.33 1011.77 1010.55 1010.16 1009.91 1010.56 1008.64 1006.58 1005.64 1005.48 1005.85 1005.92 1005.84 1005.77 1005.95 1006.18 1006.52 1007.08 1007.04 1006.73 1005.99 1006.11 1006.38 1006.32 1007.69 1010.24 1011.62 1012.59 1013.98 1014.92 1015.27 1014.95 1015.00 1013.45 1013.24 1012.34 1012.18 1012.68 1012.83 1012.84 1013.17
1015.27 1015.22 1015.36 1014.62 1012.66 1011.15 1010.53 1010.70 1011.02 1010.12 1007.72 1006.84 1006.30 1006.15 1006.15 1006.03 1005.92 1005.89 1006.18 1006.59 1006.97 1007.33 1007.33 1006.41 1005.47 1006.21 1006.02 1008.10 1009.66 1009.60 1010.93 1013.57 1014.75 1015.11 1014.78 1014.66 1014.18 1012.52 1011.74 1011.37 1011.59 1011.57 1012.05 1012.62 1012.97
1014.25 1014.28 1013.83 1012.86 1011.45 1011.69 1011.45 1011.66 1011.29 1009.34 1008.03 1006.98 1006.55 1006.44 1006.59 1006.48 1006.46 1006.60 1006.67 1006.98 1006.80 1007.39 1007.62 1007.14 1005.89 1005.58 1006.04 1006.49 1007.97 1009.09 1009.83 1011.71 1013.09 1013.78 1014.08 1014.28 1013.61 1011.72 1010.24 1009.99 1009.36 1010.47 1011.37 1012.35 1012.56
1013.36 1013.54 1013.29 1010.71 1011.24 1012.12 1012.32 1012.19 1010.78 1009.00 1007.88 1007.36 1007.16 1007.12 1007.02 1006.85 1006.79 1006.68 1007.03 1007.24 1006.85 1006.64 1007.49 1006.99 1006.08 1004.89 1005.40 1005.70 1006.69 1008.51 1009.25 1009.58 1011.89 1013.18 1013.39 1013.24 1012.40 1010.36 1009.49 1009.24 1008.98 1009.90 1011.00 1012.09 1012.12
1013.82 1013.19 1011.51 1009.15 1010.33 1011.52 1012.22 1011.99 1010.16 1008.03 1007.32 1007.18 1007.39 1007.45 1007.65 1007.36 1007.48 1007.48 1007.44 1007.12 1006.88 1006.57 1006.15 1006.81 1006.68 1005.82 1004.84 1005.18 1005.75 1006.30 1007.46 1009.64 1011.36 1012.58 1013.05 1012.68 1011.89 1010.17 1008.46 1007.95 1008.77 1009.22 1010.07 1011.17 1011.59
1013.85 1012.82 1009.30 1009.05 1009.95 1011.74 1012.15 1010.98 1009.27 1007.54 1006.92 1007.17 1007.34 1007.55 1007.80 1007.93 1007.95 1008.38 1007.91 1007.05 1006.87 1006.70 1006.59 1007.12 1007.45 1006.99 1005.71 1005.57 1005.74 1006.16 1006.88 1008.41 1010.04 1011.20 1011.92 1012.17 1010.79 1007.92 1007.38 1007.36 1007.91 1008.59 1009.23 1010.40 1011.10
1014.35 1013.05 1009.65 1009.28 1010.68 1011.21 1011.14 1009.62 1008.36 1007.57 1007.22 1007.27 1007.40 1007.76 1007.98 1008.21 1008.58 1008.51 1008.06 1007.27 1007.21 1007.10 1007.63 1007.81 1008.30 1008.31 1007.23 1006.15 1005.47 1006.34 1007.27 1008.51 1010.15 1011.12 1011.26 1010.72 1008.88 1006.45 1007.08 1007.45 1007.81 1007.91 1008.34 1009.22 1009.95
1015.89 1013.42 1008.92 1009.26 1010.73 1011.18 1010.10 1009.03 1007.83 1007.35 1007.28 1007.48 1007.76 1007.93 1008.03 1008.41 1008.82 1008.70 1008.27 1007.77 1007.54 1007.57 1008.15 1008.41 1009.24 1009.28 1008.53 1007.34 1006.66 1007.60 1008.20 1008.72 1009.59 1010.70 1011.52 1011.16 1008.68 1007.19 1007.19 1007.89 1007.77 1008.06 1008.37 1008.57 1009.36
1016.59 1014.43 1011.40 1010.37 1010.54 1010.61 1009.91 1008.91 1007.83 1007.06 1007.34 1007.50 1007.85 1008.08 1008.49 1009.09 1008.96 1009.14 1008.70 1008.08 1007.85 1008.00 1008.31 1008.68 1010.45 1010.74 1010.76 1010.22 1009.18 1009.26 1009.31 1009.62 1010.12 1011.78 1012.03 1010.98 1009.80 1008.62 1007.97 1008.09 1008.19 1008.35 1008.31 1008.45 1008.76
1016.59 1014.83 1012.77 1012.04 1011.28 1010.79 1009.71 1008.44 1008.00 1007.81 1007.83 1007.87 1008.39 1009.02 1009.08 1009.77 1009.82 1009.76 1009.28 1008.84 1008.50 1008.62 1009.12 1010.06 1011.31 1011.14 1010.98 1010.55 1010.43 1010.62 1010.53 1010.87 1011.23 1011.94 1012.30 1011.36 1011.26 1010.80 1010.66 1009.54 1009.54 1009.34 1008.38 1008.63 1009.28
1016.31 1014.93 1013.27 1012.53 1011.47 1010.78 1009.51 1008.68 1008.29 1008.11 1008.19 1008.56 1008.84 1009.27 1009.62 1010.12 1010.28 1010.22 1010.18 1010.11 1009.95 1009.65 1010.10 1011.04 1011.79 1011.78 1011.89 1011.40 1011.11 1011.63 1011.53 1011.72 1011.65 1011.85 1011.84 1011.95 1011.93 1012.04 1011.61 1011.15 1010.98 1010.51 1009.54 1009.78 1010.01
1015.66 1014.48 1014.04 1012.69 1012.10 1011.33 1010.13 1008.73 1008.29 1008.09 1008.34 1008.27 1008.68 1009.16 1009.73 1009.98 1009.92 1009.80 1009.99 1010.92 1011.00 1011.22 1011.49 1011.87 1012.41 1013.08 1013.05 1012.12 1011.84 1012.49 1012.81 1012.57 1012.74 1012.80 1012.60 1013.07 1013.69 1013.04 1012.67 1012.45 1012.58 1011.74 1011.79 1011.50 1011.16
Wind_Speed
12 12 11 11 11 11 10 10 10 10 11 11 11 12 13 14 15 2 7 11 8 10 2 4 4 4 3 4 8 4 3 2 1 4 4 4 9 6 9 22 13 5 16 15 17
12 12 12 12 11 11 11 10 10 10 10 10 11 11 12 13 4 8 13 15 13 12 4 4 4 4 2 5 3 4 2 8 9 11 0 2 3 17 17 17 12 17 18 20 21
12 13 13 12 11 11 11 11 10 10 10 10 10 11 11 10 3 8 10 20 14 9 4 2 5 2 5 1 4 5 3 5 20 12 5 2 7 5 14 4 21 21 24 23 20
12 13 13 13 12 12 12 11 11 10 10 10 9 10 11 2 3 3 4 19 12 6 2 0 1 3 4 6 5 4 1 3 7 14 5 1 4 7 1 9 17 19 25 22 19
12 13 12 12 13 13 12 11 11 10 10 9 9 9 3 1 10 5 5 15 8 6 5 5 4 5 3 3 5 4 5 6 5 7 8 11 10 3 5 13 21 21 19 21 18
12 12 13 13 13 13 13 11 11 11 9 8 7 8 1 3 5 7 8 9 7 6 5 7 6 1 5 5 4 5 10 10 7 8 7 9 3 9 13 18 20 25 19 18 17
13 13 13 13 13 13 13 13 12 10 9 7 6 3 2 14 3 6 8 6 6 7 5 8 1 1 8 3 3 10 7 10 9 8 6 17 7 9 4 15 13 18 14 13 20
13 13 14 14 14 15 15 14 13 10 8 5 5 2 8 8 5 8 7 2 6 7 7 3 2 3 5 2 6 2 2 4 6 3 0 3 6 1 10 16 14 14 12 12 23
12 13 14 14 14 14 16 17 13 8 5 4 0 1 11 11 2 8 8 6 6 5 7 8 1 6 1 6 5 6 2 4 3 7 3 6 5 3 6 10 14 13 9 16 17
13 13 14 14 13 14 19 18 4 4 2 5 5 4 6 4 4 3 8 6 5 3 2 4 2 2 4 4 5 5 2 3 6 3 7 5 7 4 8 8 3 10 7 18 19
15 15 16 15 13 11 10 3 4 1 1 9 6 5 8 4 4 3 5 7 3 4 5 3 5 4 11 3 3 4 7 6 8 9 7 3 8 9 5 3 5 6 9 15 16
16 17 19 19 15 14 4 1 8 4 9 13 14 9 11 7 1 4 5 3 7 5 1 6 6 9 5 5 8 6 7 6 5 9 2 5 8 11 8 3 3 3 3 17 12
17 20 20 21 19 3 4 8 8 9 3 11 5 5 6 4 3 6 8 4 3 3 4 7 8 7 6 6 8 1 10 10 7 8 1 5 4 4 5 4 2 2 5 5 20
17 18 20 22 3 4 6 6 5 6 5 8 2 4 3 3 4 7 8 4 1 9 5 7 12 9 10 12 6 3 6 14 11 8 4 4 2 5 8 5 3 4 2 1 10
18 16 17 8 6 3 8 6 7 5 4 2 1 5 4 5 1 2 5 4 7 7 4 10 6 7 7 17 10 7 10 10 7 2 1 3 0 3 5 8 7 7 6 3 1
18 14 14 2 2 10 10 9 5 7 3 3 5 4 0 3 4 7 5 2 4 5 5 11 6 6 7 11 15 19 14 12 6 2 0 2 3 4 5 7 11 9 7 6 3
18 10 6 4 6 6 7 5 7 3 6 2 3 3 4 2 3 6 5 3 4 4 4 7 6 6 16 19 7 15 6 4 1 1 2 4 5 9 4 9 15 16 13 10 6
23 12 7 7 4 7 5 7 3 7 4 7 4 5 3 3 3 3 3 3 4 4 2 4 8 10 6 12 14 9 7 8 7 4 4 4 4 9 12 13 16 15 13 7 8
21 1 2 7 7 4 6 5 5 4 4 6 3 4 3 3 5 1 7 3 5 8 6 0 5 4 7 7 13 5 5 6 8 4 2 3 7 9 7 5 4 14 17 14 11
3 3 5 5 10 6 6 5 5 1 4 5 4 3 2 6 6 7 5 3 7 3 4 3 2 3 9 8 7 10 8 5 3 5 3 3 5 6 6 10 12 16 17 16 10
2 4 6 9 5 6 3 7 5 3 1 2 4 3 5 2 4 6 6 4 10 8 7 3 4 9 4 1 10 2 3 5 5 5 6 4 8 9 12 9 13 15 17 17 12
4 3 2 3 4 2 2 6 4 4 6 7 5 6 4 3 3 4 3 3 10 4 4 2 5 2 4 8 3 4 3 5 6 5 1 4 8 3 9 7 9 15 19 17 16
3 4 6 7 3 3 7 6 6 2 4 4 5 4 4 2 1 1 1 4 3 3 2 5 4 5 10 9 8 7 5 2 4 4 2 4 8 6 10 7 8 10 13 18 19
2 4 6 5 1 3 5 6 3 2 3 3 1 5 5 7 5 3 4 3 4 4 7 6 3 5 5 7 4 8 9 6 7 5 5 6 9 2 6 7 2 3 8 15 18
2 5 4 4 6 8 5 3 5 1 4 8 7 9 2 6 6 7 7 7 6 5 5 6 4 4 3 7 18 16 12 11 9 2 5 10 7 12 13 5 6 7 0 8 8
1 1 5 5 4 7 3 1 8 3 4 2 4 5 6 5 4 2 2 3 4 6 4 4 1 2 3 6 16 12 12 12 8 9 2 6 4 10 8 11 13 8 10 11 9
4 4 3 5 5 5 4 7 6 7 1 6 4 4 6 4 3 5 2 3 1 4 3 3 3 4 2 6 4 8 8 9 8 8 2 9 5 6 9 8 5 7 10 9 11
Wind_Direction
349 345 340 334 329 328 326 324 321 320 320 319 319 323 325 327 315 176 235 221 184 240 139 279 224 218 211 243 224 132 126 102 25 278 187 143 167 155 129 127 143 153 137 141 137
349 346 338 333 330 327 325 325 324 322 323 323 323 324 326 329 297 248 239 220 228 237 181 243 228 183 234 224 215 118 123 159 190 234 154 242 82 129 133 138 139 125 124 132 134
346 341 337 333 329 326 323 323 325 325 324 324 323 320 324 324 297 247 218 213 201 172 192 233 309 290 220 226 211 149 205 172 198 199 226 293 55 123 125 112 155 148 145 144 143
342 339 335 332 331 327 323 322 322 322 322 323 321 318 318 273 191 270 306 192 165 176 178 259 277 196 226 215 188 126 14 154 164 196 180 104 69 127 305 190 157 145 149 148 148
342 340 334 332 332 330 324 322 319 317 318 316 322 326 350 16 252 258 44 157 144 163 187 186 207 178 219 322 118 134 164 71 81 98 85 96 29 52 248 245 148 150 153 157 157
339 338 333 331 329 327 324 323 319 314 309 307 322 327 323 295 249 153 136 134 157 157 196 189 209 170 273 244 133 117 103 97 69 63 111 104 51 22 254 180 148 157 160 165 156
339 339 331 326 325 324 324 319 313 308 305 300 311 285 279 240 75 125 164 196 174 170 202 225 165 259 360 356 143 144 111 86 46 67 94 120 186 240 265 139 136 161 170 152 158
337 335 328 328 327 323 313 308 305 298 294 281 295 298 249 258 208 206 196 199 183 198 216 267 133 272 197 128 33 1 88 94 19 57 22 278 186 243 180 150 180 161 181 134 152
334 330 326 325 324 318 306 305 296 287 258 221 127 177 273 304 227 245 150 186 176 226 242 260 139 209 200 101 60 8 145 75 131 8 357 38 171 359 322 185 166 169 178 142 152
335 332 326 325 323 321 314 303 243 310 185 190 262 316 265 253 215 186 191 167 176 175 327 209 175 208 41 101 201 148 158 98 92 57 342 344 260 357 6 168 246 180 162 146 155
335 334 333 328 326 333 349 1 19 17 219 208 211 242 270 283 137 185 201 135 190 102 182 220 75 204 217 144 183 129 98 179 167 152 169 232 262 284 352 26 317 346 164 152 158
335 336 331 324 323 322 309 216 211 179 309 221 242 244 273 265 191 294 113 144 138 196 166 6 213 224 206 229 193 124 123 154 104 149 280 201 255 285 291 230 228 1 310 161 126
331 336 329 322 315 296 195 229 262 54 310 298 192 194 230 132 222 253 148 171 153 184 196 178 229 207 209 227 182 138 146 177 146 160 86 146 260 233 272 169 237 259 310 191 144
326 327 330 324 314 334 254 276 308 149 41 280 260 259 159 162 293 195 200 120 260 200 211 231 253 217 209 233 141 120 135 119 141 157 216 187 253 226 259 207 220 229 295 274 160
320 318 329 338 301 279 247 348 311 69 22 204 195 181 126 145 288 254 166 163 255 254 117 243 242 196 199 230 133 164 161 146 140 113 58 227 260 215 168 242 219 237 204 235 144
313 314 329 99 226 244 315 321 44 46 276 237 140 173 121 196 251 192 172 123 204 237 223 240 243 167 220 142 132 132 91 48 58 64 145 246 193 263 181 213 217 208 196 229 194
308 286 295 291 229 1 310 40 36 113 317 12 168 147 207 219 22 152 181 217 191 27 359 329 264 99 105 83 84 117 97 63 356 263 221 305 174 276 261 234 221 206 183 212 208
312 294 220 226 246 5 26 50 45 291 10 6 87 64 20 33 314 187 147 253 250 146 272 221 324 137 201 157 168 183 149 149 213 181 156 216 119 261 225 295 255 204 176 197 230
316 85 216 250 201 139 64 44 226 309 312 8 351 68 313 296 184 350 190 205 255 172 194 264 289 316 180 156 144 204 205 165 104 350 111 156 255 286 232 288 156 183 154 190 227
340 347 257 169 141 73 73 238 258 295 347 39 47 34 330 329 58 41 343 149 345 324 188 261 4 315 292 113 258 148 170 79 1 142 184 254 284 260 218 192 171 177 175 188 205
6 13 259 131 90 56 174 233 265 245 65 332 6 316 360 61 73 9 309 347 16 329 62 38 90 298 10 47 184 353 23 69 118 138 156 159 257 213 227 169 177 171 178 188 203
355 360 222 46 82 204 211 211 246 7 23 25 61 30 49 45 118 177 238 10 347 340 13 325 126 323 270 292 44 72 49 93 122 262 162 156 266 170 182 171 162 187 187 195 196
358 262 303 106 227 262 283 274 210 55 50 45 17 16 4 10 61 233 308 272 342 66 71 328 13 11 350 349 10 47 1 72 143 76 131 128 270 17 120 155 180 180 201 195 192
13 341 313 37 80 262 283 300 186 112 84 105 315 28 20 18 13 90 355 29 22 43 50 79 76 122 171 232 253 11 3 51 86 71 298 217 294 278 155 162 165 194 197 206 197
153 257 218 294 315 315 208 251 115 131 74 27 22 24 24 23 35 32 354 355 1 36 47 88 65 17 354 61 75 52 32 58 74 258 122 293 338 9 4 8 27 302 32 173 159
196 20 339 265 315 343 4 292 120 93 108 9 77 37 58 70 147 23 84 22 287 348 62 10 328 34 27 78 79 55 47 55 59 9 29 16 30 5 13 31 15 344 92 80 128
307 325 116 290 357 2 273 212 160 124 39 123 108 84 48 322 303 283 236 125 182 31 2 53 97 56 326 312 97 32 342 62 63 23 2 41 329 357 17 28 341 350 17 67 85